| time (UTC) | temp F | wind direction | speed MPH | gust MPH | rain 1hr in | rain 24hr in | rain mn in | humidity % | barometer mb |
| 20260506134230 | 31 | 23 | 0.0 | 3.0 | 0.00 | 0.36 | 0.00 | 94 | 1007.9 |
| 20260506133229 | 31 | 23 | 2.0 | 4.0 | 0.00 | 0.36 | 0.00 | 94 | 1007.9 |
| 20260506132229 | 31 | 23 | 2.0 | 4.0 | 0.00 | 0.36 | 0.00 | 94 | 1007.6 |
| 20260506131234 | 31 | 23 | 0.0 | 1.0 | 0.00 | 0.36 | 0.00 | 94 | 1007.0 |
| 20260506130231 | 30 | 23 | 2.0 | 4.0 | 0.00 | 0.36 | 0.00 | 94 | 1007.0 |
| 20260506125237 | 30 | 23 | 0.0 | 0.0 | 0.00 | 0.38 | 0.00 | 94 | 1007.1 |
| 20260506124238 | 30 | 23 | 0.0 | 4.0 | 0.00 | 0.38 | 0.00 | 94 | 1006.8 |
| 20260506123238 | 30 | 20 | 2.0 | 6.0 | 0.00 | 0.38 | 0.00 | 94 | 1006.8 |
| 20260506122240 | 30 | 33 | 3.0 | 4.0 | 0.00 | 0.38 | 0.00 | 94 | 1006.8 |
| 20260506121220 | 30 | 34 | 3.0 | 5.0 | 0.00 | 0.38 | 0.00 | 94 | 1006.8 |
| 20260506120219 | 29 | 43 | 2.0 | 4.0 | 0.00 | 0.38 | 0.00 | 94 | 1006.8 |
| 20260506115226 | 29 | 43 | 0.0 | 0.0 | 0.00 | 0.43 | 0.00 | 94 | 1006.6 |
| 20260506114229 | 29 | 44 | 0.0 | 4.0 | 0.00 | 0.43 | 0.00 | 94 | 1006.5 |
| 20260506113231 | 29 | 44 | 2.0 | 4.0 | 0.00 | 0.43 | 0.00 | 94 | 1006.5 |
| 20260506112234 | 29 | 44 | 2.0 | 4.0 | 0.00 | 0.43 | 0.00 | 94 | 1006.2 |
| 20260506111220 | 29 | 44 | 3.0 | 5.0 | 0.00 | 0.43 | 0.00 | 94 | 1006.3 |
| 20260506110220 | 30 | 42 | 3.0 | 7.0 | 0.00 | 0.43 | 0.00 | 94 | 1006.3 |
| 20260506105225 | 30 | 32 | 3.0 | 5.0 | 0.00 | 0.43 | 0.00 | 94 | 1006.2 |
| 20260506104229 | 30 | 38 | 2.0 | 7.0 | 0.00 | 0.43 | 0.00 | 94 | 1006.2 |
| 20260506103218 | 30 | 24 | 3.0 | 6.0 | 0.00 | 0.43 | 0.00 | 94 | 1006.2 |
| 20260506102242 | 30 | 28 | 3.0 | 4.0 | 0.00 | 0.43 | 0.00 | 94 | 1006.3 |
| 20260506101226 | 30 | 27 | 1.0 | 5.0 | 0.00 | 0.43 | 0.00 | 94 | 1006.2 |
| 20260506100228 | 30 | 27 | 3.0 | 6.0 | 0.00 | 0.43 | 0.00 | 94 | 1006.2 |
| 20260506095255 | 30 | 21 | 3.0 | 6.0 | 0.00 | 0.43 | 0.00 | 94 | 1006.2 |
| 20260506094220 | 30 | 5 | 4.0 | 7.0 | 0.00 | 0.43 | 0.00 | 94 | 1006.1 |
| 20260506093226 | 30 | 19 | 5.0 | 7.0 | 0.00 | 0.43 | 0.00 | 94 | 1006.1 |
| 20260506092226 | 30 | 19 | 4.0 | 7.0 | 0.00 | 0.43 | 0.00 | 94 | 1005.7 |
| 20260506091234 | 30 | 24 | 5.0 | 8.0 | 0.00 | 0.43 | 0.00 | 94 | 1005.8 |
| 20260506090222 | 31 | 5 | 5.0 | 8.0 | 0.00 | 0.43 | 0.00 | 94 | 1005.8 |
| 20260506085220 | 31 | 14 | 4.0 | 6.0 | 0.00 | 0.43 | 0.00 | 94 | 1005.9 |
| 20260506084220 | 31 | 14 | 2.0 | 5.0 | 0.00 | 0.43 | 0.00 | 94 | 1006.1 |
| 20260506083225 | 31 | 15 | 4.0 | 7.0 | 0.00 | 0.43 | 0.00 | 94 | 1006.1 |
| 20260506082230 | 31 | 360 | 3.0 | 8.0 | 0.00 | 0.43 | 0.00 | 94 | 1006.2 |
| 20260506081229 | 31 | 9 | 3.0 | 7.0 | 0.00 | 0.43 | 0.00 | 94 | 1006.1 |
| 20260506080234 | 31 | 9 | 3.0 | 8.0 | 0.00 | 0.43 | 0.00 | 94 | 1006.1 |
| 20260506073227 | 31 | 9 | 3.0 | 6.0 | 0.00 | 0.43 | 0.00 | 94 | 1006.1 |
| 20260506072229 | 31 | 5 | 3.0 | 7.0 | 0.00 | 0.43 | 0.00 | 94 | 1006.1 |
| 20260506071249 | 31 | 9 | 3.0 | 5.0 | 0.00 | 0.43 | 0.00 | 94 | 1006.2 |
| 20260506070237 | 31 | 9 | 0.0 | 5.0 | 0.00 | 0.43 | 0.00 | 94 | 1006.2 |
| 20260506062232 | 31 | 13 | 3.0 | 6.0 | 0.00 | 0.43 | 0.00 | 94 | 1005.6 |
| 20260506061219 | 31 | 360 | 4.0 | 5.0 | 0.00 | 0.43 | 0.00 | 94 | 1005.5 |
| 20260506060238 | 31 | 360 | 2.0 | 4.0 | 0.00 | 0.43 | 0.00 | 94 | 1005.5 |
| 20260506051235 | 31 | 355 | 3.0 | 6.0 | 0.00 | 0.44 | 0.43 | 93 | 1005.3 |
| 20260506050220 | 31 | 350 | 4.0 | 7.0 | 0.00 | 0.44 | 0.43 | 93 | 1005.3 |
| 20260506044224 | 31 | 332 | 2.0 | 4.0 | 0.00 | 0.47 | 0.43 | 93 | 1005.4 |
| 20260506043221 | 31 | 349 | 3.0 | 5.0 | 0.00 | 0.47 | 0.43 | 93 | 1005.4 |
| 20260506042227 | 31 | 349 | 3.0 | 7.0 | 0.00 | 0.47 | 0.43 | 93 | 1005.4 |
| 20260506041249 | 31 | 355 | 3.0 | 6.0 | 0.00 | 0.47 | 0.43 | 93 | 1005.5 |
| 20260506040228 | 31 | 360 | 1.0 | 5.0 | 0.00 | 0.47 | 0.43 | 93 | 1005.5 |
| 20260506035236 | 31 | 360 | 4.0 | 7.0 | 0.00 | 0.52 | 0.43 | 93 | 1005.3 |
| 20260506034220 | 31 | 360 | 3.0 | 7.0 | 0.00 | 0.52 | 0.43 | 93 | 1004.9 |
| 20260506033223 | 31 | 348 | 3.0 | 8.0 | 0.01 | 0.52 | 0.43 | 93 | 1004.9 |
| 20260506032245 | 32 | 346 | 3.0 | 7.0 | 0.01 | 0.52 | 0.43 | 93 | 1004.9 |
| 20260506031236 | 32 | 351 | 3.0 | 5.0 | 0.01 | 0.52 | 0.43 | 93 | 1004.3 |
| 20260506030238 | 32 | 12 | 4.0 | 8.0 | 0.01 | 0.52 | 0.43 | 93 | 1004.3 |
| 20260506025222 | 32 | 9 | 4.0 | 7.0 | 0.01 | 0.52 | 0.43 | 93 | 1004.3 |
| 20260506024246 | 32 | 340 | 3.0 | 6.0 | 0.01 | 0.52 | 0.43 | 93 | 1004.0 |
| 20260506023249 | 32 | 314 | 3.0 | 5.0 | 0.00 | 0.51 | 0.42 | 93 | 1004.0 |
| 20260506022232 | 32 | 9 | 4.0 | 7.0 | 0.00 | 0.51 | 0.42 | 93 | 1003.5 |
| 20260506021235 | 32 | 355 | 4.0 | 7.0 | 0.00 | 0.51 | 0.42 | 93 | 1003.6 |
| 20260506020240 | 32 | 337 | 3.0 | 7.0 | 0.01 | 0.51 | 0.42 | 93 | 1003.6 |
| 20260506015258 | 32 | 344 | 4.0 | 6.0 | 0.01 | 0.51 | 0.42 | 93 | 1003.3 |
| 20260506014220 | 32 | 345 | 3.0 | 6.0 | 0.01 | 0.51 | 0.42 | 93 | 1003.2 |
| 20260506013226 | 32 | 306 | 5.0 | 10.0 | 0.01 | 0.51 | 0.42 | 93 | 1003.2 |
| 20260506012228 | 32 | 327 | 3.0 | 7.0 | 0.02 | 0.51 | 0.42 | 93 | 1003.1 |
| 20260506011234 | 32 | 337 | 3.0 | 9.0 | 0.02 | 0.51 | 0.42 | 93 | 1003.1 |
| 20260506010224 | 32 | 360 | 3.0 | 7.0 | 0.01 | 0.50 | 0.41 | 93 | 1003.1 |
| 20260506005228 | 32 | 348 | 5.0 | 8.0 | 0.01 | 0.51 | 0.41 | 93 | 1003.1 |
| 20260506004231 | 32 | 302 | 3.0 | 10.0 | 0.02 | 0.51 | 0.41 | 93 | 1003.1 |
| 20260506003235 | 32 | 327 | 5.0 | 10.0 | 0.02 | 0.51 | 0.41 | 93 | 1003.1 |
| 20260506002221 | 32 | 9 | 5.0 | 11.0 | 0.01 | 0.50 | 0.40 | 93 | 1002.8 |
| 20260506001224 | 32 | 349 | 4.0 | 9.0 | 0.01 | 0.50 | 0.40 | 93 | 1002.6 |
| 20260506000226 | 33 | 343 | 3.0 | 6.0 | 0.01 | 0.50 | 0.40 | 93 | 1002.6 |
| 20260505235230 | 33 | 348 | 4.0 | 8.0 | 0.02 | 0.50 | 0.40 | 93 | 1002.4 |
| 20260505234237 | 33 | 355 | 3.0 | 7.0 | 0.01 | 0.49 | 0.39 | 93 | 1002.5 |
| 20260505233223 | 33 | 355 | 4.0 | 8.0 | 0.01 | 0.49 | 0.39 | 93 | 1002.5 |
| 20260505232227 | 33 | 348 | 3.0 | 8.0 | 0.02 | 0.49 | 0.39 | 93 | 1002.0 |
| 20260505231229 | 33 | 347 | 2.0 | 4.0 | 0.03 | 0.49 | 0.39 | 93 | 1002.4 |
| 20260505230235 | 33 | 344 | 3.0 | 6.0 | 0.03 | 0.49 | 0.39 | 92 | 1002.4 |
| 20260505225225 | 33 | 74 | 1.0 | 3.0 | 0.03 | 0.48 | 0.38 | 92 | 1001.8 |
| 20260505224228 | 34 | 74 | 1.0 | 2.0 | 0.03 | 0.48 | 0.38 | 93 | 1001.6 |
| 20260505223234 | 34 | 74 | 0.0 | 1.0 | 0.04 | 0.48 | 0.38 | 93 | 1001.6 |
| 20260505222236 | 34 | 74 | 0.0 | 1.0 | 0.04 | 0.47 | 0.37 | 93 | 1001.4 |
| 20260505221238 | 34 | 74 | 0.0 | 1.0 | 0.04 | 0.46 | 0.36 | 92 | 1001.2 |
| 20260505220222 | 34 | 74 | 0.0 | 0.0 | 0.05 | 0.46 | 0.36 | 92 | 1001.2 |
| 20260505215228 | 34 | 74 | 0.0 | 2.0 | 0.05 | 0.45 | 0.35 | 92 | 1001.5 |
| 20260505214229 | 34 | 74 | 0.0 | 3.0 | 0.07 | 0.45 | 0.35 | 92 | 1001.8 |
| 20260505213230 | 34 | 74 | 1.0 | 3.0 | 0.08 | 0.44 | 0.34 | 92 | 1001.8 |
| 20260505212300 | 34 | 74 | 1.0 | 3.0 | 0.08 | 0.43 | 0.33 | 92 | 1001.8 |
| 20260505211224 | 35 | 74 | 2.0 | 4.0 | 0.08 | 0.42 | 0.32 | 92 | 1001.9 |
| 20260505210229 | 36 | 73 | 2.0 | 4.0 | 0.07 | 0.41 | 0.31 | 92 | 1001.9 |
| 20260505205230 | 37 | 73 | 1.0 | 3.0 | 0.06 | 0.40 | 0.30 | 92 | 1002.4 |
| 20260505204237 | 37 | 73 | 1.0 | 4.0 | 0.05 | 0.38 | 0.28 | 92 | 1002.4 |
| 20260505203222 | 38 | 73 | 1.0 | 3.0 | 0.04 | 0.36 | 0.26 | 92 | 1002.4 |
| 20260505202243 | 38 | 73 | 2.0 | 4.0 | 0.03 | 0.34 | 0.24 | 93 | 1002.5 |
| 20260505201224 | 39 | 73 | 2.0 | 4.0 | 0.04 | 0.34 | 0.24 | 93 | 1002.5 |
| 20260505200232 | 38 | 73 | 1.0 | 5.0 | 0.05 | 0.34 | 0.24 | 93 | 1002.5 |
| 20260505195231 | 38 | 71 | 1.0 | 5.0 | 0.06 | 0.34 | 0.24 | 93 | 1002.6 |
| 20260505194235 | 37 | 72 | 1.0 | 7.0 | 0.06 | 0.33 | 0.23 | 93 | 1002.8 |
| 20260505193240 | 37 | 69 | 2.0 | 5.0 | 0.06 | 0.32 | 0.22 | 93 | 1002.8 |
| 20260505192236 | 37 | 69 | 2.0 | 7.0 | 0.05 | 0.31 | 0.21 | 93 | 1002.8 |
| 20260505191300 | 37 | 69 | 2.0 | 7.0 | 0.04 | 0.30 | 0.20 | 93 | 1003.1 |
| 20260505190227 | 37 | 78 | 3.0 | 7.0 | 0.03 | 0.29 | 0.19 | 93 | 1003.1 |
| 20260505185226 | 37 | 78 | 3.0 | 8.0 | 0.03 | 0.28 | 0.18 | 93 | 1003.2 |
| 20260505184226 | 37 | 38 | 2.0 | 6.0 | 0.02 | 0.27 | 0.17 | 93 | 1003.2 |
| 20260505183252 | 37 | 40 | 3.0 | 8.0 | 0.01 | 0.26 | 0.16 | 93 | 1003.2 |
| 20260505182232 | 37 | 45 | 3.0 | 6.0 | 0.01 | 0.26 | 0.16 | 93 | 1003.3 |
| 20260505181237 | 38 | 38 | 4.0 | 7.0 | 0.01 | 0.26 | 0.16 | 93 | 1003.7 |
| 20260505180223 | 38 | 62 | 4.0 | 10.0 | 0.01 | 0.26 | 0.16 | 93 | 1003.7 |
| 20260505175231 | 38 | 80 | 4.0 | 8.0 | 0.00 | 0.25 | 0.15 | 93 | 1003.7 |
| 20260505174252 | 38 | 78 | 2.0 | 8.0 | 0.00 | 0.25 | 0.15 | 94 | 1003.7 |
| 20260505173236 | 38 | 76 | 4.0 | 8.0 | 0.01 | 0.25 | 0.15 | 94 | 1003.7 |
| 20260505172225 | 38 | 84 | 6.0 | 8.0 | 0.01 | 0.25 | 0.15 | 94 | 1003.7 |
| 20260505171223 | 38 | 82 | 4.0 | 7.0 | 0.02 | 0.25 | 0.15 | 94 | 1003.8 |
| 20260505170233 | 37 | 65 | 4.0 | 7.0 | 0.02 | 0.25 | 0.15 | 94 | 1003.8 |
| 20260505165240 | 36 | 316 | 2.0 | 5.0 | 0.03 | 0.25 | 0.15 | 94 | 1004.3 |
| 20260505164239 | 36 | 317 | 4.0 | 6.0 | 0.03 | 0.25 | 0.15 | 94 | 1004.3 |
| 20260505163227 | 36 | 315 | 4.0 | 6.0 | 0.02 | 0.24 | 0.14 | 93 | 1004.3 |
| 20260505162233 | 35 | 12 | 3.0 | 4.0 | 0.03 | 0.24 | 0.14 | 93 | 1004.3 |
| 20260505161240 | 35 | 12 | 1.0 | 3.0 | 0.02 | 0.23 | 0.13 | 93 | 1004.3 |
| 20260505160224 | 36 | 12 | 2.0 | 7.0 | 0.02 | 0.23 | 0.13 | 93 | 1004.3 |
| 20260505153233 | 36 | 44 | 3.0 | 6.0 | 0.02 | 0.22 | 0.12 | 94 | 1004.3 |
| 20260505152240 | 36 | 360 | 3.0 | 6.0 | 0.02 | 0.21 | 0.11 | 94 | 1004.3 |
| 20260505151247 | 36 | 302 | 5.0 | 9.0 | 0.02 | 0.21 | 0.11 | 94 | 1004.4 |
| 20260505150229 | 35 | 329 | 4.0 | 9.0 | 0.03 | 0.21 | 0.11 | 93 | 1004.4 |
| 20260505140228 | 35 | 344 | 4.0 | 8.0 | 0.01 | 0.18 | 0.08 | 93 | 1004.6 |